QPF
0.07 0.09 0.09 0.06 0.04 0.03 0.02 0.02 0.02 0.01 0.01 0.01 0.01 0.00 0.00 0.01 0.01 0.01 0.00 0.00 0.00 0.00 0.00 0.01 0.01 0.02 0.03 0.03 0.03 0.03 0.03 0.03 0.03 0.03 0.03 0.02 0.02 0.01 0.02 0.02 0.01 0.01 0.01 0.01
0.06 0.07 0.06 0.05 0.04 0.03 0.02 0.03 0.02 0.02 0.01 0.01 0.01 0.01 0.01 0.01 0.01 0.00 0.00 0.00 0.00 0.00 0.00 0.00 0.01 0.01 0.02 0.02 0.04 0.05 0.04 0.04 0.03 0.03 0.03 0.02 0.02 0.02 0.02 0.02 0.01 0.01 0.01 0.01
0.06 0.05 0.05 0.05 0.04 0.03 0.03 0.03 0.02 0.02 0.02 0.01 0.01 0.01 0.01 0.01 0.01 0.00 0.00 0.00 0.00 0.00 0.00 0.00 0.01 0.01 0.02 0.02 0.02 0.04 0.04 0.05 0.05 0.05 0.05 0.05 0.03 0.02 0.02 0.02 0.01 0.01 0.01 0.01
0.04 0.03 0.05 0.06 0.05 0.03 0.03 0.02 0.02 0.02 0.02 0.02 0.01 0.01 0.00 0.00 0.00 0.00 0.00 0.00 0.00 0.00 0.00 0.01 0.01 0.01 0.01 0.01 0.02 0.03 0.04 0.05 0.05 0.04 0.03 0.03 0.03 0.03 0.04 0.03 0.02 0.01 0.01 0.01
0.03 0.02 0.04 0.05 0.05 0.04 0.03 0.02 0.02 0.03 0.03 0.02 0.01 0.01 0.00 0.00 0.00 0.00 0.00 0.00 0.00 0.00 0.00 0.00 0.00 0.00 0.00 0.01 0.01 0.01 0.02 0.03 0.04 0.04 0.03 0.04 0.03 0.03 0.03 0.03 0.02 0.01 0.01 0.01
0.02 0.02 0.03 0.03 0.04 0.04 0.03 0.03 0.03 0.04 0.05 0.03 0.01 0.00 0.00 0.00 0.00 0.00 0.00 0.00 0.00 0.00 0.00 0.00 0.00 0.00 0.00 0.00 0.01 0.01 0.01 0.01 0.02 0.02 0.02 0.03 0.03 0.02 0.02 0.03 0.02 0.01 0.01 0.01
0.03 0.03 0.02 0.02 0.04 0.04 0.05 0.06 0.07 0.08 0.07 0.02 0.00 0.00 0.00 0.00 0.00 0.00 0.00 0.00 0.00 0.00 0.00 0.00 0.00 0.00 0.00 0.00 0.00 0.00 0.00 0.01 0.01 0.01 0.02 0.01 0.01 0.01 0.01 0.01 0.01 0.01 0.00 0.00
0.03 0.04 0.03 0.02 0.03 0.05 0.05 0.05 0.05 0.05 0.03 0.01 0.00 0.00 0.00 0.00 0.00 0.00 0.00 0.00 0.00 0.00 0.00 0.00 0.00 0.00 0.00 0.00 0.00 0.00 0.00 0.00 0.01 0.01 0.01 0.01 0.01 0.01 0.01 0.01 0.01 0.01 0.01 0.01
0.04 0.04 0.02 0.01 0.02 0.04 0.05 0.04 0.02 0.03 0.03 0.02 0.01 0.00 0.00 0.00 0.00 0.00 0.00 0.00 0.00 0.00 0.00 0.00 0.00 0.00 0.00 0.00 0.00 0.00 0.00 0.00 0.00 0.00 0.00 0.00 0.00 0.00 0.00 0.00 0.00 0.00 0.00 0.00
0.04 0.04 0.03 0.02 0.02 0.02 0.03 0.03 0.03 0.04 0.04 0.02 0.01 0.00 0.00 0.00 0.00 0.00 0.00 0.00 0.00 0.00 0.00 0.00 0.00 0.00 0.00 0.00 0.00 0.00 0.00 0.00 0.00 0.00 0.00 0.00 0.00 0.00 0.00 0.00 0.00 0.00 0.00 0.00
0.03 0.04 0.03 0.04 0.04 0.03 0.02 0.02 0.02 0.03 0.03 0.03 0.02 0.01 0.00 0.00 0.00 0.00 0.00 0.00 0.00 0.00 0.00 0.00 0.00 0.00 0.00 0.00 0.00 0.00 0.00 0.00 0.00 0.00 0.00 0.00 0.00 0.00 0.00 0.00 0.00 0.00 0.00 0.00
0.02 0.04 0.04 0.03 0.03 0.02 0.03 0.02 0.02 0.03 0.03 0.02 0.02 0.01 0.00 0.00 0.00 0.00 0.00 0.00 0.00 0.00 0.00 0.00 0.00 0.00 0.00 0.00 0.00 0.00 0.00 0.00 0.00 0.00 0.00 0.00 0.00 0.00 0.00 0.00 0.00 0.00 0.00 0.00
0.02 0.04 0.05 0.05 0.03 0.02 0.02 0.02 0.03 0.03 0.03 0.03 0.03 0.01 0.00 0.00 0.00 0.00 0.00 0.00 0.00 0.00 0.00 0.00 0.00 0.00 0.00 0.00 0.00 0.00 0.00 0.00 0.00 0.00 0.00 0.00 0.00 0.00 0.00 0.00 0.00 0.00 0.00 0.00
0.04 0.04 0.05 0.07 0.06 0.03 0.01 0.01 0.01 0.03 0.04 0.02 0.01 0.01 0.00 0.00 0.00 0.00 0.00 0.00 0.00 0.00 0.00 0.00 0.00 0.00 0.00 0.00 0.00 0.00 0.00 0.00 0.00 0.00 0.00 0.00 0.00 0.00 0.00 0.00 0.00 0.00 0.00 0.00
0.04 0.04 0.03 0.03 0.03 0.02 0.01 0.01 0.01 0.02 0.01 0.01 0.01 0.01 0.00 0.00 0.00 0.00 0.01 0.00 0.00 0.00 0.00 0.00 0.00 0.00 0.00 0.00 0.00 0.00 0.00 0.00 0.00 0.00 0.00 0.00 0.00 0.00 0.00 0.00 0.00 0.00 0.00 0.00
0.04 0.04 0.02 0.02 0.02 0.01 0.01 0.01 0.01 0.01 0.00 0.00 0.00 0.00 0.00 0.00 0.00 0.01 0.01 0.01 0.01 0.00 0.00 0.00 0.00 0.00 0.00 0.00 0.00 0.00 0.00 0.00 0.00 0.00 0.00 0.00 0.00 0.00 0.00 0.00 0.00 0.00 0.00 0.00
0.02 0.03 0.03 0.02 0.02 0.03 0.03 0.01 0.01 0.00 0.00 0.01 0.00 0.00 0.00 0.00 0.01 0.02 0.02 0.01 0.01 0.00 0.00 0.00 0.00 0.00 0.00 0.00 0.00 0.00 0.00 0.00 0.00 0.00 0.00 0.00 0.00 0.00 0.00 0.00 0.00 0.00 0.00 0.00
0.01 0.02 0.03 0.03 0.02 0.03 0.02 0.01 0.01 0.01 0.01 0.01 0.01 0.01 0.00 0.00 0.01 0.02 0.01 0.01 0.00 0.00 0.00 0.00 0.00 0.00 0.00 0.00 0.00 0.00 0.00 0.00 0.00 0.00 0.00 0.00 0.00 0.00 0.00 0.00 0.00 0.00 0.00 0.00
0.00 0.01 0.03 0.03 0.02 0.01 0.01 0.01 0.01 0.01 0.02 0.02 0.01 0.01 0.01 0.01 0.02 0.01 0.01 0.00 0.00 0.00 0.00 0.00 0.00 0.00 0.00 0.00 0.00 0.00 0.00 0.00 0.00 0.00 0.00 0.00 0.00 0.00 0.00 0.00 0.00 0.00 0.00 0.00
0.00 0.01 0.02 0.03 0.03 0.02 0.01 0.00 0.00 0.01 0.01 0.01 0.01 0.01 0.01 0.01 0.01 0.01 0.00 0.00 0.00 0.00 0.00 0.00 0.00 0.00 0.00 0.00 0.00 0.00 0.00 0.00 0.00 0.00 0.00 0.00 0.00 0.00 0.00 0.00 0.00 0.00 0.00 0.00
0.01 0.02 0.02 0.02 0.03 0.02 0.01 0.00 0.00 0.01 0.02 0.00 0.00 0.00 0.00 0.01 0.01 0.01 0.00 0.00 0.00 0.00 0.00 0.00 0.00 0.00 0.00 0.00 0.00 0.00 0.00 0.00 0.00 0.00 0.00 0.00 0.00 0.00 0.00 0.00 0.00 0.00 0.00 0.00
0.02 0.03 0.03 0.03 0.04 0.03 0.01 0.00 0.01 0.01 0.01 0.00 0.00 0.00 0.00 0.00 0.00 0.00 0.00 0.00 0.00 0.00 0.00 0.00 0.00 0.00 0.00 0.00 0.00 0.00 0.00 0.00 0.00 0.00 0.00 0.00 0.00 0.00 0.00 0.00 0.00 0.00 0.00 0.00
0.01 0.02 0.03 0.03 0.05 0.03 0.01 0.01 0.01 0.01 0.01 0.00 0.00 0.00 0.00 0.00 0.00 0.00 0.00 0.00 0.00 0.00 0.00 0.00 0.00 0.00 0.00 0.00 0.00 0.00 0.00 0.00 0.00 0.00 0.00 0.00 0.00 0.00 0.00 0.00 0.00 0.00 0.00 0.00
0.01 0.01 0.01 0.01 0.02 0.01 0.01 0.01 0.01 0.01 0.01 0.00 0.00 0.00 0.00 0.00 0.00 0.00 0.00 0.00 0.00 0.00 0.00 0.00 0.00 0.00 0.00 0.00 0.00 0.00 0.00 0.00 0.00 0.00 0.00 0.00 0.00 0.00 0.00 0.00 0.00 0.00 0.00 0.00
0.01 0.00 0.00 0.01 0.01 0.01 0.00 0.00 0.00 0.00 0.00 0.00 0.00 0.00 0.01 0.01 0.00 0.00 0.00 0.00 0.00 0.00 0.00 0.00 0.00 0.00 0.00 0.00 0.01 0.01 0.01 0.01 0.01 0.01 0.01 0.01 0.01 0.01 0.00 0.00 0.00 0.00 0.00 0.01
0.00 0.00 0.01 0.01 0.01 0.01 0.01 0.00 0.00 0.00 0.00 0.00 0.00 0.00 0.00 0.01 0.01 0.00 0.00 0.00 0.00 0.00 0.00 0.00 0.00 0.01 0.00 0.00 0.00 0.00 0.00 0.01 0.01 0.01 0.01 0.01 0.01 0.01 0.01 0.01 0.00 0.01 0.01 0.01
MSLP
1014.57 1014.47 1014.14 1013.66 1013.15 1012.73 1012.53 1012.63 1013.04 1013.71 1014.52 1015.35 1016.04 1016.48 1016.62 1016.44 1016.00 1015.41 1014.79 1014.23 1013.82 1013.61 1013.59 1013.72 1013.95 1014.22 1014.48 1014.71 1014.89 1015.06 1015.23 1015.42 1015.66 1015.93 1016.24 1016.56 1016.88 1017.16 1017.40 1017.61 1017.80 1017.98 1018.16 1018.36
1014.48 1014.35 1014.01 1013.52 1012.99 1012.57 1012.35 1012.44 1012.83 1013.48 1014.28 1015.10 1015.79 1016.25 1016.41 1016.25 1015.85 1015.30 1014.70 1014.16 1013.77 1013.57 1013.55 1013.68 1013.90 1014.17 1014.44 1014.68 1014.89 1015.08 1015.28 1015.50 1015.76 1016.06 1016.37 1016.68 1016.98 1017.24 1017.45 1017.63 1017.80 1017.96 1018.12 1018.31
1014.36 1014.18 1013.80 1013.30 1012.77 1012.34 1012.12 1012.18 1012.54 1013.15 1013.90 1014.66 1015.31 1015.75 1015.90 1015.76 1015.38 1014.87 1014.33 1013.84 1013.50 1013.33 1013.34 1013.50 1013.75 1014.04 1014.34 1014.61 1014.86 1015.10 1015.35 1015.61 1015.91 1016.23 1016.55 1016.86 1017.14 1017.37 1017.56 1017.72 1017.86 1018.00 1018.16 1018.34
1014.25 1014.02 1013.62 1013.10 1012.58 1012.16 1011.94 1011.99 1012.31 1012.85 1013.52 1014.19 1014.75 1015.11 1015.21 1015.05 1014.69 1014.22 1013.73 1013.31 1013.04 1012.93 1013.00 1013.21 1013.51 1013.84 1014.19 1014.51 1014.82 1015.11 1015.41 1015.73 1016.06 1016.41 1016.74 1017.05 1017.32 1017.54 1017.71 1017.86 1017.99 1018.13 1018.29 1018.47
1014.20 1013.94 1013.52 1013.03 1012.54 1012.15 1011.95 1011.98 1012.26 1012.72 1013.27 1013.81 1014.25 1014.49 1014.50 1014.29 1013.92 1013.46 1013.02 1012.67 1012.48 1012.45 1012.60 1012.88 1013.24 1013.63 1014.03 1014.41 1014.77 1015.12 1015.47 1015.83 1016.20 1016.56 1016.91 1017.23 1017.49 1017.71 1017.88 1018.03 1018.17 1018.32 1018.50 1018.69
1014.21 1013.94 1013.56 1013.11 1012.69 1012.36 1012.19 1012.23 1012.46 1012.83 1013.26 1013.65 1013.92 1014.02 1013.91 1013.62 1013.21 1012.76 1012.35 1012.07 1011.95 1012.01 1012.24 1012.59 1013.02 1013.47 1013.93 1014.36 1014.76 1015.15 1015.53 1015.92 1016.30 1016.68 1017.04 1017.37 1017.65 1017.88 1018.07 1018.24 1018.41 1018.59 1018.79 1019.00
1014.24 1014.02 1013.70 1013.35 1013.02 1012.78 1012.67 1012.73 1012.92 1013.21 1013.51 1013.74 1013.84 1013.78 1013.53 1013.14 1012.68 1012.22 1011.84 1011.61 1011.56 1011.70 1012.00 1012.43 1012.92 1013.43 1013.92 1014.39 1014.82 1015.23 1015.62 1016.01 1016.40 1016.79 1017.15 1017.49 1017.78 1018.04 1018.27 1018.48 1018.69 1018.91 1019.14 1019.38
1014.24 1014.11 1013.90 1013.67 1013.46 1013.33 1013.30 1013.39 1013.56 1013.77 1013.95 1014.04 1013.99 1013.76 1013.39 1012.91 1012.39 1011.91 1011.55 1011.36 1011.38 1011.58 1011.95 1012.44 1012.98 1013.53 1014.05 1014.53 1014.97 1015.37 1015.76 1016.14 1016.52 1016.90 1017.27 1017.62 1017.94 1018.23 1018.49 1018.75 1019.00 1019.26 1019.53 1019.80
1014.18 1014.16 1014.08 1013.98 1013.91 1013.89 1013.95 1014.07 1014.24 1014.40 1014.48 1014.45 1014.26 1013.92 1013.44 1012.88 1012.32 1011.83 1011.49 1011.34 1011.40 1011.66 1012.08 1012.60 1013.18 1013.75 1014.28 1014.77 1015.20 1015.59 1015.96 1016.33 1016.69 1017.06 1017.43 1017.79 1018.13 1018.45 1018.76 1019.05 1019.35 1019.64 1019.93 1020.20
1014.03 1014.12 1014.17 1014.20 1014.25 1014.34 1014.48 1014.65 1014.81 1014.93 1014.95 1014.83 1014.56 1014.13 1013.58 1012.98 1012.40 1011.92 1011.60 1011.48 1011.57 1011.86 1012.31 1012.86 1013.45 1014.03 1014.56 1015.04 1015.47 1015.85 1016.21 1016.56 1016.92 1017.28 1017.65 1018.02 1018.38 1018.73 1019.07 1019.39 1019.70 1020.01 1020.30 1020.56
1013.83 1014.00 1014.15 1014.28 1014.43 1014.60 1014.80 1014.99 1015.16 1015.25 1015.23 1015.06 1014.73 1014.27 1013.70 1013.10 1012.53 1012.07 1011.77 1011.68 1011.79 1012.10 1012.55 1013.10 1013.68 1014.26 1014.80 1015.28 1015.71 1016.09 1016.46 1016.81 1017.18 1017.55 1017.94 1018.32 1018.70 1019.07 1019.42 1019.75 1020.06 1020.36 1020.63 1020.87
1013.62 1013.84 1014.05 1014.25 1014.45 1014.66 1014.88 1015.08 1015.23 1015.30 1015.25 1015.06 1014.73 1014.27 1013.72 1013.15 1012.62 1012.19 1011.92 1011.84 1011.96 1012.25 1012.69 1013.22 1013.79 1014.36 1014.89 1015.39 1015.83 1016.24 1016.64 1017.03 1017.42 1017.82 1018.24 1018.65 1019.05 1019.43 1019.78 1020.11 1020.41 1020.68 1020.92 1021.12
1013.47 1013.71 1013.93 1014.15 1014.36 1014.57 1014.77 1014.94 1015.07 1015.11 1015.04 1014.84 1014.53 1014.10 1013.60 1013.09 1012.61 1012.23 1011.98 1011.91 1012.01 1012.28 1012.67 1013.16 1013.70 1014.25 1014.79 1015.30 1015.78 1016.24 1016.69 1017.13 1017.59 1018.04 1018.50 1018.95 1019.37 1019.77 1020.12 1020.44 1020.72 1020.96 1021.16 1021.32
1013.44 1013.66 1013.87 1014.06 1014.24 1014.41 1014.56 1014.67 1014.74 1014.74 1014.65 1014.46 1014.17 1013.80 1013.37 1012.92 1012.51 1012.17 1011.95 1011.87 1011.94 1012.15 1012.48 1012.91 1013.40 1013.92 1014.46 1014.99 1015.52 1016.04 1016.57 1017.09 1017.62 1018.15 1018.66 1019.16 1019.62 1020.04 1020.40 1020.71 1020.97 1021.19 1021.36 1021.50
1013.56 1013.74 1013.91 1014.06 1014.18 1014.27 1014.34 1014.37 1014.36 1014.30 1014.18 1013.99 1013.73 1013.42 1013.07 1012.70 1012.35 1012.06 1011.86 1011.76 1011.78 1011.92 1012.18 1012.53 1012.95 1013.44 1013.96 1014.51 1015.08 1015.67 1016.27 1016.88 1017.50 1018.10 1018.69 1019.24 1019.74 1020.19 1020.57 1020.89 1021.15 1021.36 1021.53 1021.67
1013.77 1013.92 1014.05 1014.15 1014.20 1014.21 1014.18 1014.11 1014.01 1013.88 1013.72 1013.53 1013.30 1013.05 1012.77 1012.48 1012.21 1011.96 1011.77 1011.65 1011.62 1011.68 1011.85 1012.11 1012.46 1012.88 1013.38 1013.93 1014.53 1015.17 1015.84 1016.53 1017.22 1017.90 1018.55 1019.16 1019.71 1020.20 1020.62 1020.96 1021.25 1021.48 1021.67 1021.83
1014.01 1014.15 1014.26 1014.31 1014.30 1014.22 1014.09 1013.92 1013.73 1013.53 1013.33 1013.13 1012.93 1012.74 1012.54 1012.33 1012.12 1011.93 1011.76 1011.62 1011.54 1011.53 1011.60 1011.77 1012.03 1012.39 1012.84 1013.37 1013.98 1014.65 1015.36 1016.09 1016.84 1017.57 1018.28 1018.94 1019.54 1020.08 1020.54 1020.93 1021.26 1021.54 1021.77 1021.97
1014.19 1014.34 1014.45 1014.48 1014.42 1014.28 1014.06 1013.80 1013.53 1013.26 1013.02 1012.82 1012.65 1012.51 1012.38 1012.26 1012.13 1011.99 1011.85 1011.72 1011.61 1011.54 1011.54 1011.62 1011.80 1012.08 1012.47 1012.96 1013.54 1014.19 1014.91 1015.66 1016.43 1017.19 1017.92 1018.62 1019.26 1019.84 1020.36 1020.81 1021.20 1021.53 1021.81 1022.07
1014.25 1014.42 1014.54 1014.57 1014.49 1014.30 1014.03 1013.70 1013.36 1013.04 1012.78 1012.57 1012.43 1012.34 1012.30 1012.26 1012.22 1012.16 1012.07 1011.96 1011.84 1011.75 1011.69 1011.71 1011.81 1012.02 1012.34 1012.77 1013.29 1013.91 1014.59 1015.32 1016.06 1016.82 1017.55 1018.26 1018.93 1019.55 1020.11 1020.61 1021.06 1021.45 1021.80 1022.10
1014.15 1014.36 1014.51 1014.55 1014.47 1014.26 1013.95 1013.58 1013.20 1012.84 1012.56 1012.36 1012.25 1012.22 1012.24 1012.30 1012.35 1012.37 1012.35 1012.29 1012.21 1012.12 1012.04 1012.02 1012.08 1012.22 1012.48 1012.83 1013.29 1013.84 1014.45 1015.12 1015.82 1016.53 1017.24 1017.93 1018.60 1019.24 1019.84 1020.38 1020.88 1021.32 1021.71 1022.05
1013.93 1014.18 1014.36 1014.42 1014.35 1014.14 1013.82 1013.42 1013.01 1012.64 1012.35 1012.16 1012.08 1012.10 1012.19 1012.33 1012.47 1012.58 1012.65 1012.67 1012.64 1012.58 1012.53 1012.50 1012.53 1012.64 1012.84 1013.13 1013.51 1013.98 1014.51 1015.10 1015.72 1016.37 1017.02 1017.68 1018.33 1018.96 1019.57 1020.13 1020.66 1021.13 1021.54 1021.90
1013.70 1013.96 1014.16 1014.24 1014.19 1013.98 1013.66 1013.26 1012.84 1012.46 1012.16 1011.98 1011.92 1011.97 1012.12 1012.33 1012.55 1012.75 1012.91 1013.01 1013.06 1013.06 1013.06 1013.06 1013.09 1013.19 1013.35 1013.59 1013.91 1014.29 1014.74 1015.23 1015.77 1016.33 1016.92 1017.52 1018.12 1018.73 1019.32 1019.88 1020.41 1020.89 1021.31 1021.66
1013.54 1013.81 1014.02 1014.11 1014.06 1013.87 1013.55 1013.15 1012.73 1012.34 1012.04 1011.85 1011.80 1011.87 1012.05 1012.30 1012.57 1012.84 1013.08 1013.26 1013.40 1013.48 1013.54 1013.59 1013.65 1013.76 1013.91 1014.12 1014.38 1014.69 1015.06 1015.47 1015.91 1016.39 1016.89 1017.42 1017.97 1018.53 1019.09 1019.63 1020.14 1020.60 1021.00 1021.33
1013.56 1013.81 1014.01 1014.11 1014.06 1013.88 1013.57 1013.17 1012.75 1012.35 1012.04 1011.83 1011.76 1011.83 1012.00 1012.26 1012.57 1012.88 1013.17 1013.42 1013.63 1013.79 1013.91 1014.03 1014.14 1014.26 1014.42 1014.61 1014.84 1015.10 1015.40 1015.73 1016.09 1016.48 1016.90 1017.36 1017.84 1018.34 1018.85 1019.35 1019.82 1020.25 1020.63 1020.93
1013.80 1014.02 1014.20 1014.29 1014.25 1014.06 1013.76 1013.37 1012.94 1012.53 1012.19 1011.96 1011.85 1011.88 1012.03 1012.27 1012.56 1012.89 1013.21 1013.50 1013.76 1013.98 1014.17 1014.34 1014.49 1014.66 1014.83 1015.01 1015.22 1015.44 1015.68 1015.94 1016.23 1016.55 1016.89 1017.27 1017.69 1018.12 1018.58 1019.03 1019.45 1019.84 1020.18 1020.46
1014.22 1014.42 1014.59 1014.66 1014.61 1014.43 1014.13 1013.74 1013.31 1012.88 1012.52 1012.24 1012.09 1012.06 1012.15 1012.35 1012.61 1012.92 1013.23 1013.54 1013.83 1014.09 1014.32 1014.53 1014.73 1014.92 1015.10 1015.29 1015.47 1015.66 1015.86 1016.07 1016.29 1016.54 1016.82 1017.13 1017.48 1017.85 1018.24 1018.63 1019.01 1019.36 1019.67 1019.92
Thickness
5495 5497 5504 5516 5527 5539 5547 5552 5557 5568 5580 5578 5580 5589 5601 5611 5616 5621 5630 5639 5647 5654 5662 5667 5671 5675 5678 5681 5682 5684 5684 5685 5685 5684 5683 5682 5681 5682 5682 5682 5682 5682 5681 5680
5492 5497 5510 5520 5527 5533 5542 5547 5555 5565 5575 5577 5577 5584 5597 5606 5612 5619 5626 5634 5641 5648 5653 5657 5663 5666 5669 5673 5675 5677 5678 5679 5679 5679 5678 5678 5677 5676 5676 5676 5675 5674 5673 5673
5494 5503 5512 5518 5523 5529 5537 5544 5551 5556 5566 5572 5572 5575 5589 5603 5611 5618 5625 5633 5639 5644 5647 5650 5654 5658 5661 5665 5668 5671 5671 5672 5672 5672 5671 5670 5669 5668 5667 5667 5666 5666 5665 5664
5498 5506 5511 5515 5521 5530 5534 5549 5553 5554 5552 5555 5565 5560 5584 5599 5605 5613 5620 5627 5634 5641 5645 5647 5649 5651 5654 5657 5661 5662 5663 5664 5664 5664 5663 5661 5659 5658 5659 5659 5658 5657 5656 5655
5499 5506 5509 5514 5522 5530 5535 5546 5549 5549 5550 5552 5560 5559 5579 5598 5600 5610 5618 5624 5630 5637 5641 5643 5646 5647 5649 5649 5651 5652 5653 5654 5655 5655 5655 5653 5653 5652 5651 5650 5649 5647 5646 5645
5505 5511 5514 5517 5524 5529 5533 5538 5541 5542 5540 5537 5557 5558 5573 5594 5604 5612 5618 5623 5628 5632 5635 5638 5639 5641 5639 5639 5640 5641 5642 5643 5644 5645 5645 5645 5644 5642 5641 5639 5638 5637 5635 5634
5505 5510 5515 5520 5518 5523 5526 5524 5519 5522 5524 5536 5565 5564 5576 5602 5611 5614 5616 5619 5624 5627 5628 5628 5629 5630 5630 5629 5629 5630 5632 5632 5634 5634 5634 5634 5634 5633 5631 5629 5628 5626 5624 5622
5501 5505 5515 5519 5520 5521 5523 5524 5521 5525 5530 5545 5562 5561 5581 5601 5608 5611 5613 5615 5617 5620 5621 5622 5623 5622 5621 5620 5619 5619 5621 5622 5623 5623 5623 5622 5621 5620 5619 5617 5616 5614 5612 5610
5510 5510 5519 5522 5523 5524 5521 5522 5531 5529 5537 5538 5550 5570 5585 5595 5597 5601 5603 5606 5608 5611 5614 5615 5615 5615 5613 5611 5610 5611 5611 5611 5611 5611 5610 5609 5608 5606 5605 5604 5603 5601 5599 5598
5513 5508 5514 5519 5520 5522 5523 5526 5524 5521 5526 5534 5551 5561 5569 5579 5585 5590 5593 5595 5599 5603 5604 5606 5605 5605 5604 5603 5602 5601 5601 5600 5598 5598 5597 5596 5594 5593 5592 5590 5589 5587 5586 5585
5512 5507 5508 5511 5512 5516 5518 5521 5524 5524 5528 5529 5539 5552 5576 5578 5581 5581 5584 5587 5590 5593 5595 5595 5595 5595 5595 5593 5592 5590 5589 5588 5587 5585 5584 5582 5581 5579 5579 5577 5576 5574 5573 5572
5514 5510 5506 5510 5516 5518 5519 5523 5523 5516 5521 5530 5531 5543 5573 5572 5575 5576 5577 5580 5582 5585 5586 5586 5586 5585 5584 5582 5581 5580 5578 5577 5575 5575 5573 5570 5568 5567 5565 5564 5563 5561 5560 5559
5512 5507 5502 5504 5507 5510 5514 5521 5524 5522 5517 5519 5523 5539 5564 5565 5567 5570 5572 5573 5574 5577 5577 5577 5576 5575 5574 5572 5571 5569 5568 5566 5564 5563 5561 5558 5556 5554 5553 5551 5550 5548 5547 5546
5508 5503 5501 5504 5509 5511 5510 5517 5520 5515 5507 5515 5524 5537 5550 5556 5558 5561 5564 5567 5568 5570 5570 5569 5567 5567 5566 5564 5563 5561 5558 5556 5554 5552 5550 5547 5545 5544 5542 5540 5538 5536 5535 5533
5501 5498 5503 5507 5512 5512 5512 5515 5516 5512 5513 5513 5527 5534 5543 5548 5551 5554 5558 5560 5562 5564 5564 5563 5561 5560 5559 5557 5555 5553 5550 5548 5545 5542 5540 5538 5536 5533 5530 5528 5526 5524 5523 5521
5496 5494 5497 5501 5508 5508 5507 5513 5515 5514 5516 5518 5523 5528 5539 5543 5546 5548 5551 5553 5554 5557 5558 5558 5558 5556 5554 5552 5550 5547 5543 5540 5537 5534 5531 5529 5526 5522 5519 5517 5514 5512 5510 5509
5491 5490 5490 5494 5503 5501 5499 5512 5513 5514 5519 5519 5518 5527 5533 5534 5538 5539 5542 5544 5546 5550 5552 5553 5552 5551 5550 5548 5546 5541 5537 5533 5529 5526 5523 5520 5516 5512 5509 5507 5504 5501 5499 5497
5487 5486 5484 5489 5493 5485 5506 5516 5517 5515 5517 5518 5520 5524 5527 5529 5531 5533 5534 5536 5538 5541 5544 5545 5546 5546 5546 5544 5541 5536 5531 5526 5522 5518 5515 5511 5508 5504 5500 5496 5493 5491 5489 5486
5486 5484 5481 5482 5486 5496 5506 5509 5510 5509 5510 5513 5515 5517 5520 5523 5523 5522 5525 5527 5528 5531 5534 5536 5538 5539 5539 5537 5534 5529 5523 5519 5514 5511 5508 5504 5500 5496 5491 5487 5484 5481 5478 5476
5486 5481 5475 5478 5479 5484 5495 5501 5505 5502 5498 5502 5505 5506 5508 5511 5507 5510 5514 5518 5519 5521 5522 5525 5527 5529 5529 5527 5525 5520 5515 5511 5507 5505 5501 5497 5493 5489 5484 5479 5476 5473 5469 5466
5476 5474 5469 5470 5474 5483 5487 5494 5496 5488 5483 5489 5492 5494 5496 5497 5496 5500 5505 5507 5508 5510 5511 5514 5515 5516 5516 5516 5514 5510 5506 5502 5500 5497 5493 5489 5485 5480 5476 5471 5468 5464 5461 5458
5476 5473 5472 5472 5469 5471 5479 5483 5477 5473 5478 5480 5482 5484 5486 5488 5492 5495 5497 5498 5498 5498 5500 5501 5501 5501 5502 5503 5502 5499 5495 5493 5491 5487 5483 5479 5475 5472 5468 5463 5459 5456 5453 5450
5475 5470 5468 5469 5468 5471 5473 5471 5469 5469 5468 5469 5471 5474 5478 5481 5483 5486 5488 5489 5489 5489 5489 5490 5489 5489 5489 5490 5490 5487 5484 5483 5480 5476 5473 5470 5467 5463 5460 5456 5453 5449 5447 5444
5470 5466 5464 5464 5468 5467 5465 5463 5462 5461 5460 5461 5463 5465 5469 5471 5474 5477 5479 5479 5479 5478 5479 5479 5480 5479 5479 5479 5479 5477 5475 5474 5471 5467 5464 5462 5458 5455 5452 5450 5447 5444 5442 5440
5460 5459 5456 5457 5458 5458 5457 5452 5451 5451 5452 5453 5455 5457 5458 5461 5464 5466 5467 5468 5468 5469 5469 5469 5470 5470 5470 5470 5469 5468 5466 5465 5462 5459 5457 5454 5452 5449 5446 5444 5442 5441 5439 5437
5453 5449 5445 5445 5443 5440 5442 5441 5441 5441 5442 5443 5444 5447 5449 5450 5453 5455 5456 5457 5457 5458 5458 5459 5459 5460 5460 5460 5459 5459 5458 5457 5455 5452 5450 5448 5445 5443 5441 5438 5436 5436 5434 5433